[[{"header":{"parameterUnit":"m.s-1","parameterCategory":1,"la1":30.2992,"la2":30.254,"lo1":-89.0895,"lo2":-89.0443,"dy":0.0025,"dx":0.0025,"nx":19,"ny":19,"refTime":"2026-05-13T03:00:00:Z","depth":0,"parameterNumber":2,"parameterNumberName":"U-component_of_WINDS"},"data":[0,0,0,-2.3586,-2.3589,-2.3695,-2.3695,-2.3862,-2.3864,0,0,0,0,0,0,0,0,0,0,0,-2.3572,-2.3574,-2.3586,-2.3589,-2.3695,-2.3695,-2.3862,-2.3864,0,0,0,0,0,0,0,0,0,0,0,-2.3572,-2.3574,-2.3576,-2.359,-2.3695,-2.3695,-2.3861,-2.3771,0,0,0,0,0,0,0,0,0,0,-2.3663,-2.3667,-2.3573,-2.3576,-2.359,-2.3695,-2.3695,-2.3766,-2.3777,-2.3827,0,-2.3875,0,-2.3872,-2.3877,-2.3878,0,0,0,-2.3577,-2.3658,-2.367,-2.3576,-2.3592,-2.3695,-2.3644,-2.3771,-2.3783,-2.3841,-2.3877,-2.3882,-2.3875,-2.3878,-2.3879,-2.4206,-2.4208,0,0,-2.3571,-2.3602,-2.3662,-2.3679,-2.3662,-2.3641,-2.3647,-2.3778,-2.382,-2.3878,-2.3886,-2.3878,-2.3879,-2.3881,-2.4204,-2.4207,0,0,0,-2.3563,-2.3598,-2.3606,-2.3673,-2.3689,-2.3644,-2.3652,-2.3814,-2.3814,-2.3887,-2.3879,-2.3881,-2.3883,-2.4202,-2.4205,-2.4339,0,0,0,-2.3559,-2.3593,-2.3605,-2.3624,-2.3687,-2.3753,-2.3686,-2.3805,-2.3819,-2.3879,-2.3881,-2.3885,-2.4199,-2.4204,-2.433,-2.4399,0,0,0,-2.356,-2.3593,-2.3614,-2.3626,-2.3672,-2.375,-2.3757,-2.3808,-2.3815,-2.3878,-2.3885,-2.4198,-2.4203,-2.4322,-2.4386,-2.4494,0,0,0,-2.3571,-2.3733,-2.3616,-2.3794,-2.3671,-2.383,-2.3756,-2.3874,-2.3943,-2.3882,-2.42,-2.4205,-2.432,-2.4378,-2.4486,-2.4593,-2.4639,0,0,-2.3792,-2.3761,-2.3863,-2.3762,-2.3949,-2.3812,-2.402,-2.4056,-2.4035,-2.4151,-2.4158,-2.4333,-2.4385,-2.4493,-2.4885,-2.4922,0,0,0,-2.3943,-2.4018,-2.406,-2.4126,-2.4155,-2.4187,-2.4187,-2.4199,-2.4296,-2.41,-2.4399,-2.4429,-2.4491,-2.4541,-2.4573,-2.4625,-2.4228,-2.4228,-2.4227,-2.4305,-2.4266,-2.4432,-2.4407,-2.4472,-2.4468,-2.4518,-2.4535,-2.4479,-2.455,-2.4586,-2.4829,-2.4888,-2.4911,-2.4966,-2.4637,-2.4637,-2.4638,-2.4638,-2.4628,-2.4728,-2.4646,-2.4778,-2.4737,-2.4849,-2.4851,-2.4807,-2.4906,-2.4799,-2.4852,-2.4741,-2.4953,-2.4999,-2.4648,-2.4646,-2.4645,-2.4644,-2.4643,-2.4863,-2.4904,-2.4914,-2.5004,-2.5078,-2.5045,-2.5143,-2.5102,-2.5064,-2.5116,-2.5149,-2.5147,-2.5142,-2.5134,-2.5135,-2.5136,-2.5136,-2.5137,-2.5137,-2.5104,-2.5111,-2.5197,-2.5239,-2.5275,-2.5318,-2.5313,-2.5348,-2.5377,-2.5339,-2.5339,-2.5278,-2.498,-2.4907,-2.515,-2.5148,-2.5146,-2.5145,-2.5144,-2.5452,-2.5366,-2.55,-2.5536,-2.5581,-2.5657,-2.56,-2.5675,-2.5697,-2.5747,-2.5672,-2.5458,-2.5424,-2.5398,-2.5338,-2.5678,-2.5678,-2.5678,-2.5678,-2.5653,-2.5629,-2.5756,-2.5816,-2.5869,-2.5831,-2.5985,-2.5983,-2.5967,-2.5979,-2.5922,-2.5838,-2.5814,-2.5794,-2.576,-2.5704,-2.6129,-2.613,-2.613,-2.5865,-2.5844,-2.5984,-2.5964,-2.5995,-2.6024,-2.6167,-2.6241,-2.6205,-2.6148,-2.5988,-2.5969,-2.5832,-2.5789,-2.5733,-2.5681,-2.5576,0,0]},{"header":{"parameterUnit":"m.s-1","parameterCategory":1,"la1":30.2992,"la2":30.254,"lo1":-89.0895,"lo2":-89.0443,"dy":0.0025,"dx":0.0025,"nx":19,"ny":19,"refTime":"2026-05-13T03:00:00:Z","depth":0,"parameterNumber":3,"parameterNumberName":"V-component_of_WINDS"},"data":[0,0,0,-3.7082,-3.7086,-3.7281,-3.7282,-3.7528,-3.753,0,0,0,0,0,0,0,0,0,0,0,-3.7025,-3.7026,-3.7082,-3.7087,-3.7281,-3.7282,-3.7527,-3.753,0,0,0,0,0,0,0,0,0,0,0,-3.7024,-3.7026,-3.7028,-3.7088,-3.7281,-3.7282,-3.7527,-3.7381,0,0,0,0,0,0,0,0,0,0,-3.7192,-3.714,-3.7025,-3.7028,-3.7089,-3.7281,-3.7282,-3.7374,-3.739,-3.7439,0,-3.7484,0,-3.7511,-3.7546,-3.7547,0,0,0,-3.7086,-3.7126,-3.7179,-3.7028,-3.709,-3.728,-3.7193,-3.7383,-3.7401,-3.746,-3.7488,-3.7497,-3.7515,-3.7548,-3.7549,-3.7837,-3.7838,0,0,-3.7076,-3.706,-3.7166,-3.719,-3.7162,-3.7187,-3.7199,-3.7394,-3.7422,-3.7489,-3.7503,-3.7519,-3.755,-3.7552,-3.7836,-3.7837,0,0,0,-3.7045,-3.7052,-3.71,-3.718,-3.7216,-3.7193,-3.7207,-3.7413,-3.743,-3.7505,-3.7522,-3.7551,-3.7554,-3.7834,-3.7836,-3.7888,0,0,0,-3.7039,-3.7034,-3.7095,-3.7087,-3.7212,-3.7317,-3.7222,-3.7417,-3.7439,-3.7521,-3.7551,-3.7556,-3.7833,-3.7835,-3.7884,-3.7915,0,0,0,-3.7012,-3.7031,-3.7059,-3.7086,-3.7169,-3.7315,-3.7343,-3.7422,-3.745,-3.7548,-3.7557,-3.7832,-3.7835,-3.788,-3.7909,-3.7986,0,0,0,-3.6979,-3.7103,-3.706,-3.7204,-3.7167,-3.7345,-3.7342,-3.7475,-3.7565,-3.7552,-3.7833,-3.7836,-3.7878,-3.7905,-3.7982,-3.8049,-3.8075,0,0,-3.7126,-3.712,-3.7206,-3.7174,-3.7355,-3.7317,-3.7506,-3.7604,-3.7627,-3.7765,-3.7773,-3.7885,-3.7908,-3.7985,-3.8229,-3.825,0,0,0,-3.7247,-3.7309,-3.7361,-3.7446,-3.7524,-3.7593,-3.7663,-3.7699,-3.7817,-3.7695,-3.7935,-3.7949,-3.7995,-3.8027,-3.8045,-3.8085,-3.7851,-3.785,-3.785,-3.7432,-3.7456,-3.76,-3.7647,-3.773,-3.7801,-3.787,-3.793,-3.793,-3.7985,-3.8027,-3.8172,-3.8209,-3.8223,-3.8264,-3.8064,-3.8064,-3.8064,-3.8064,-3.765,-3.7741,-3.7738,-3.7876,-3.79,-3.8016,-3.8088,-3.8084,-3.8195,-3.8143,-3.8184,-3.8126,-3.8245,-3.8282,-3.8069,-3.8068,-3.8067,-3.8067,-3.8067,-3.7774,-3.7822,-3.7864,-3.7989,-3.8082,-3.8125,-3.8232,-3.8249,-3.8267,-3.8308,-3.8353,-3.8352,-3.8353,-3.8328,-3.8328,-3.8329,-3.8329,-3.833,-3.833,-3.7886,-3.7932,-3.802,-3.8112,-3.8169,-3.8246,-3.8317,-3.8373,-3.8439,-3.8443,-3.8444,-3.8437,-3.8253,-3.8206,-3.8338,-3.8336,-3.8335,-3.8335,-3.8334,-3.8098,-3.8053,-3.8189,-3.8246,-3.8355,-3.8446,-3.8467,-3.8579,-3.8628,-3.8679,-3.8664,-3.8524,-3.8519,-3.8505,-3.8466,-3.8658,-3.8658,-3.8659,-3.8659,-3.8203,-3.8202,-3.8345,-3.8434,-3.8524,-3.8556,-3.8708,-3.8764,-3.8814,-3.8845,-3.882,-3.877,-3.8755,-3.8759,-3.8739,-3.8703,-3.8952,-3.8952,-3.8952,-3.8334,-3.8342,-3.8469,-3.8519,-3.8605,-3.8678,-3.8821,-3.8923,-3.897,-3.8964,-3.887,-3.8858,-3.8777,-3.875,-3.8742,-3.8711,-3.8646,0,0]}]]